STELLA

Satellite information

Favourite Embed

Satellite Type and Status

PAYLOADIN ORBIT

Key statistics

Satellite STELLA at a glance.

Uptime

11547

Days in orbit

Revolutions

≈ 14.3

Per day

Orbit

SSO

Sun Synchronous Orbit

Inclination

98.8

Latest

Satellite identification and parameters

Extended collection of information and parameters for STELLA.

Object identification

Identified? True

Debris? False

Object name: STELLA

International designator: 1993-061B

Object number (NORAD): 22824

Object ID (CCSDS): 22824

Country: FRANCE (FR)

Current information (Y/N): Y

RCS size: MEDIUM

Orbital parameters

Period: 100.879 minutes

Inclination: 98.8272 deg

SMA: 7178.388 km

Apoapsis: 804.569 km

Periapsis: 795.936 km

RAAN: 184.3942 deg

Eccentricy: 0.0006013

Argument of periapsis: 345.4556 deg

Mean anomaly: 65.2979 deg

Mean motion: 14.27454892 rev/day

Mean motion (dot): -0.00000036 rev/day2

B* drag term: 0.0000039321 1/REarth

Two-line elements (TLE)

Creation date: May 8, 2025, 3:01 a.m.

Reference frame: TEME

Reference center: EARTH

Epoch: May 7, 2025, 9:44 p.m. UTC

TLE line 0: 0 STELLA

TLE line 1: 1 22824U 93061B 25127.90624742 -.00000036 00000-0 39321-5 0 9991

TLE line 2: 2 22824 98.8272 184.3942 0006013 345.4556 65.2979 14.27454892646953

Live tracking on map

Real-time ground track for satellite STELLA.

In-orbit conjunctions

A list of the most updated potential collisions computed for object STELLA.

Target Orbit TCA Probability of collision Miss distance Type
DELTA 1 DEB SSO 2025-05-06 14:50:30 0.000229463 637.0 (m) DEBRIS
CZ-6A DEB SSO 2024-11-06 02:34:53 0.0002572639 893.0 (m) DEBRIS
COSMOS 1275 DEB LEO 2024-09-23 00:11:13 0.001179047 108.0 (m) DEBRIS
DELTA 1 DEB MEO 2024-09-01 19:40:41 0.0002854662 684.0 (m) DEBRIS
NOAA 16 DEB SSO 2024-07-02 13:56:41 0.0001821143 565.0 (m) DEBRIS

Associated space launch

The satellites SPOT 1, 2 and 3 (Satellite Probatoire de l'Observation de la Terre) were the first generation of SPOT earth observation satellites operated by Spot Image.

STELLA was lifted into orbit during the mission ‘Ariane 40 | SPOT 3’, on board a Ariane 40 space rocket.

The launch took place on Sept. 26, 1993, 1:45 a.m. from Ariane Launch Area 2.

For more information about the launch, click the button.

Launch to space Ariane 40 | SPOT 3
Ariane 40 | SPOT 3

Agency: N/A

Status: Launch Successful

Launch date: Sept. 26, 1993, 1:45 a.m. UTC

Rocket: Ariane 40

Launch pad: Ariane Launch Area 2

Location: Guiana Space Centre, French Guiana

...

Latest news about this satellite

There are no fresh news available about this satellite. Check back as we update our databases every day.


Newsletter sign-up

Weekly statistics, charts and insights to help you stay on top of the space industry.